TIANMU-1 16 (58701 NORAD) Tracking and Keplerian Element Data

This shows tracking and keplerian element data for the satellite.

Feedback or suggestion? Click here.




ElementValue
Catalog58701
NameTIANMU-1 16
Epoch Orbit115
Epoch Day13.1156109
Epoch Year2024
RAAN197.3339
Inclination97.4485
Eccentricity0.0010542
Argument of Perigee234.7263
Mean Anonmoly125.2983
Mean Motion15.14152789
Decay Rate7.667E-05
L11 58701U 24004B 24013.11561090 .00007667 00000+0 42341-3 0 9996
L22 58701 97.4485 197.3339 0010542 234.7263 125.2983 15.14152789 1154



Live tracking and technical data element details for TIANMU-1 16 (NORAD 58701). TIANMU-1 16 can be tracked NOW for your location showing map with azimuth and elevation plus other details from your city location.







IsCatalogInMostPopularTable: catalog: 58701, numindb: 25
Update: records affected: 1



GetName: 58701 TIANMU-1 16

Hit Count: updated at: Wed, 17 Apr 2024 02:41:02 GMT